Eastsound, WA
on Monday, January 14, 2013

Monday
Previous Day Next Day
Daily Summary
 ActualAverage (KBLI)Record (KBLI)
Temperature
Mean Temperature °F 39°F  
Max Temperature 35°F 45°F 62°F (1968)
Min Temperature 35°F 33°F 10°F (2007)
Degree Days
Heating Degree Days 30 26  
Month to date heating degree days 370  
Cooling Degree Days 0 0  
Month to date cooling degree days 0  
Year to date cooling degree days 0  
Moisture
Dew Point 32°F   
Average Humidity 86    
Maximum Humidity 93    
Minimum Humidity 75    
Precipitation
Precipitation 0.00 in 0.16 in 0.94 in (1996)
Month to date precipitation 2.14  
Year to date precipitation 2.14  
Wind
Wind Speed 4 mph   
Max Wind Speed 9 mph   
Max Gust Speed mph   
Visibility 9 miles   
Events Rain   

Key: T is trace of precipitation, MM is missing value
Source: NWS Daily Summary
Time(PST)TemperatureDew PointHumidity Pressure Visibility Wind DirectionWind SpeedGust SpeedPrecipitationEvents Conditions
12:15 AM 35.6°F 28.4°F 75% 30.45 in 10.0 miles South 5.8 mph - N/A   Overcast
12:35 AM 35.6°F 30.2°F 81% 30.46 in 10.0 miles SSW 4.6 mph - N/A   Overcast
12:55 AM 35.6°F 28.4°F 75% 30.47 in 10.0 miles Calm Calm - N/A   Overcast
1:15 AM 35.6°F 28.4°F 75% 30.46 in 10.0 miles Calm Calm - N/A   Overcast
1:35 AM 35.6°F 30.2°F 81% 30.46 in 10.0 miles Calm Calm - N/A   Overcast
1:55 AM 35.6°F 30.2°F 81% 30.47 in 10.0 miles Calm Calm - N/A   Overcast
2:15 AM 35.6°F 30.2°F 81% 30.47 in 7.0 miles Calm Calm - N/A   Overcast
2:35 AM 35.6°F 30.2°F 81% 30.46 in 10.0 miles Calm Calm - N/A   Overcast
2:55 AM 35.6°F 30.2°F 81% 30.46 in 10.0 miles Calm Calm - N/A   Overcast
3:15 AM 35.6°F 28.4°F 75% 30.46 in 10.0 miles South 3.5 mph - N/A   Overcast
3:55 AM 35.6°F 28.4°F 75% 30.46 in 10.0 miles South 3.5 mph - N/A   Overcast
4:15 AM 35.6°F 28.4°F 75% 30.46 in 10.0 miles South 3.5 mph - N/A   Overcast
4:35 AM 35.6°F 28.4°F 75% 30.46 in 10.0 miles SSE 3.5 mph - N/A   Overcast
4:55 AM 35.6°F 28.4°F 75% 30.45 in 10.0 miles South 3.5 mph - N/A   Overcast
5:15 AM 35.6°F 28.4°F 75% 30.45 in 10.0 miles South 4.6 mph - N/A   Overcast
5:35 AM 35.6°F 28.4°F 75% 30.46 in 10.0 miles SSE 3.5 mph - N/A   Overcast
5:55 AM 35.6°F 28.4°F 75% 30.46 in 10.0 miles SSE 3.5 mph - N/A   Overcast
6:15 AM 35.6°F 30.2°F 81% 30.45 in 10.0 miles Calm Calm - N/A   Overcast
6:55 AM 35.6°F 30.2°F 81% 30.45 in 10.0 miles South 5.8 mph - N/A   Overcast
7:15 AM 35.6°F 30.2°F 81% 30.45 in 10.0 miles South 5.8 mph - N/A   Overcast
7:35 AM 35.6°F 30.2°F 81% 30.45 in 10.0 miles South 4.6 mph - N/A   Overcast
7:55 AM 35.6°F 32.0°F 87% 30.46 in 10.0 miles South 9.2 mph - N/A   Overcast
8:15 AM 35.6°F 32.0°F 87% 30.47 in 10.0 miles South 6.9 mph - N/A   Overcast
8:35 AM 35.6°F 32.0°F 87% 30.47 in 10.0 miles South 6.9 mph - N/A   Overcast
8:55 AM 35.6°F 32.0°F 87% 30.47 in 7.0 miles South 6.9 mph - N/A   Mostly Cloudy
9:15 AM 35.6°F 32.0°F 87% 30.47 in 9.0 miles South 5.8 mph - N/A   Overcast
9:35 AM 35.6°F 32.0°F 87% 30.47 in 10.0 miles South 6.9 mph - N/A   Overcast
9:55 AM 35.6°F 32.0°F 87% 30.47 in 10.0 miles South 8.1 mph - N/A   Overcast
10:15 AM 35.6°F 32.0°F 87% 30.47 in 8.0 miles South 9.2 mph - N/A   Overcast
10:35 AM 35.6°F 32.0°F 87% 30.47 in 10.0 miles South 6.9 mph - N/A   Overcast
11:15 AM 35.6°F 32.0°F 87% 30.47 in 10.0 miles South 5.8 mph - N/A   Overcast
11:35 AM 35.6°F 32.0°F 87% 30.48 in 9.0 miles South 4.6 mph - N/A   Overcast
11:55 AM 35.6°F 32.0°F 87% 30.48 in 7.0 miles South 6.9 mph - N/A   Overcast
12:15 PM 35.6°F 32.0°F 87% 30.47 in 6.0 miles South 8.1 mph - N/A   Overcast
12:35 PM 35.6°F 32.0°F 87% 30.48 in 8.0 miles South 5.8 mph - N/A   Mostly Cloudy
1:15 PM 35.6°F 32.0°F 87% 30.47 in 8.0 miles South 8.1 mph - N/A   Mostly Cloudy
1:35 PM 35.6°F 32.0°F 87% 30.47 in 9.0 miles South 8.1 mph - N/A   Mostly Cloudy
1:55 PM 35.6°F 32.0°F 87% 30.48 in 6.0 miles South 5.8 mph - N/A   Scattered Clouds
2:35 PM 35.6°F 32.0°F 87% 30.48 in 6.0 miles South 5.8 mph - N/A Rain Light Rain
2:55 PM 35.6°F 32.0°F 87% 30.49 in 5.0 miles South 8.1 mph - N/A   Overcast
3:15 PM 35.6°F 32.0°F 87% 30.49 in 9.0 miles South 9.2 mph - N/A   Overcast
3:35 PM 35.6°F 32.0°F 87% 30.48 in 7.0 miles South 9.2 mph - N/A   Overcast
3:55 PM 35.6°F 32.0°F 87% 30.49 in 10.0 miles South 6.9 mph - N/A   Overcast
4:15 PM 35.6°F 32.0°F 87% 30.50 in 10.0 miles South 4.6 mph - N/A   Mostly Cloudy
4:35 PM 35.6°F 32.0°F 87% 30.50 in 9.0 miles South 4.6 mph - N/A   Overcast
4:55 PM 35.6°F 32.0°F 87% 30.50 in 7.0 miles South 6.9 mph - N/A   Mostly Cloudy
5:15 PM 35.6°F 32.0°F 87% 30.50 in 7.0 miles South 6.9 mph - N/A   Scattered Clouds
5:35 PM 35.6°F 33.8°F 93% 30.50 in 7.0 miles South 4.6 mph - N/A   Mostly Cloudy
6:15 PM 35.6°F 33.8°F 93% 30.52 in 10.0 miles SSW 4.6 mph - N/A   Mostly Cloudy
6:35 PM 35.6°F 33.8°F 93% 30.51 in 10.0 miles South 3.5 mph - N/A   Overcast
6:55 PM 35.6°F 33.8°F 93% 30.52 in 10.0 miles Calm Calm - N/A   Overcast
7:15 PM 35.6°F 33.8°F 93% 30.53 in 10.0 miles North - - N/A   Overcast
7:35 PM 35.6°F 33.8°F 93% 30.53 in 10.0 miles Calm Calm - N/A   Mostly Cloudy
7:55 PM 35.6°F 33.8°F 93% 30.54 in 10.0 miles Calm Calm - N/A   Overcast
8:15 PM 35.6°F 33.8°F 93% 30.54 in 10.0 miles Calm Calm - N/A   Overcast
8:35 PM 35.6°F 33.8°F 93% 30.54 in 10.0 miles Calm Calm - N/A   Overcast
8:55 PM 35.6°F 33.8°F 93% 30.55 in 10.0 miles Calm Calm - N/A   Overcast
9:15 PM 35.6°F 33.8°F 93% 30.55 in 10.0 miles Calm Calm - N/A   Overcast
9:55 PM 35.6°F 33.8°F 93% 30.55 in 10.0 miles Calm Calm - N/A   Overcast
10:15 PM 35.6°F 33.8°F 93% 30.55 in 10.0 miles Calm Calm - N/A   Overcast
10:35 PM 35.6°F 33.8°F 93% 30.55 in 10.0 miles Calm Calm - N/A   Overcast
10:55 PM 35.6°F 33.8°F 93% 30.55 in 9.0 miles Calm Calm - N/A   Overcast
11:15 PM 35.6°F 33.8°F 93% 30.56 in 8.0 miles Calm Calm - N/A   Overcast
11:35 PM 35.6°F 33.8°F 93% 30.56 in 8.0 miles Calm Calm - N/A   Overcast
11:55 PM 35.6°F 33.8°F 93% 30.57 in 10.0 miles Calm Calm - N/A   Overcast
Moon Phase
Jan. 14 Jan. 18 Jan. 26 Feb. 03 Feb. 10
Sunrise:07:59 AM (PST) Moon Rise:09:15 AM (PST)1/14
Sunset:04:42 PM (PST) Moon Set:08:57 PM (PST)1/14

Copyright © 2014 The Weather Underground, Inc.